| time (UTC) | temp C | wind direction | speed KPH | gust KPH | rain 1hr cm | rain 24hr cm | rain mn cm | humidity % | barometer mb |
| 20260831002353 | 22 | 230 | 1.6 | 6.4 | 0.00 | 0.00 | 0.00 | 56 | 1018.8 |
| 20260831001337 | 22 | 230 | 1.6 | 4.8 | 0.00 | 0.00 | 0.00 | 56 | 1018.6 |
| 20260831000340 | 22 | 230 | 0.0 | 0.0 | 0.00 | 0.00 | 0.00 | 56 | 1018.7 |
| 20260830235359 | 22 | 229 | 0.0 | 0.0 | 0.00 | 0.00 | 0.00 | 55 | 1018.8 |
| 20260830234356 | 23 | 229 | 0.0 | 1.6 | 0.00 | 0.00 | 0.00 | 55 | 1018.7 |
| 20260830233356 | 23 | 229 | 0.0 | 1.6 | 0.00 | 0.00 | 0.00 | 55 | 1018.8 |
| 20260830232348 | 23 | 229 | 0.0 | 1.6 | 0.00 | 0.00 | 0.00 | 54 | 1018.8 |
| 20260830231351 | 23 | 229 | 1.6 | 3.2 | 0.00 | 0.00 | 0.00 | 54 | 1018.8 |
| 20260830230349 | 23 | 229 | 3.2 | 4.8 | 0.00 | 0.00 | 0.00 | 53 | 1018.9 |
| 20260830225344 | 23 | 229 | 1.6 | 3.2 | 0.00 | 0.00 | 0.00 | 52 | 1018.8 |
| 20260830224348 | 23 | 229 | 1.6 | 3.2 | 0.00 | 0.00 | 0.00 | 51 | 1018.8 |
| 20260830223348 | 23 | 229 | 0.0 | 4.8 | 0.00 | 0.00 | 0.00 | 50 | 1018.8 |
| 20260830222345 | 23 | 229 | 1.6 | 4.8 | 0.00 | 0.00 | 0.00 | 50 | 1018.8 |
| 20260830221343 | 23 | 229 | 1.6 | 4.8 | 0.00 | 0.00 | 0.00 | 50 | 1018.7 |
| 20260830220344 | 24 | 229 | 1.6 | 3.2 | 0.00 | 0.00 | 0.00 | 49 | 1018.7 |
| 20260830215339 | 24 | 229 | 0.0 | 3.2 | 0.00 | 0.00 | 0.00 | 49 | 1018.7 |
| 20260830214338 | 24 | 229 | 1.6 | 4.8 | 0.00 | 0.00 | 0.00 | 49 | 1018.6 |
| 20260830213337 | 25 | 231 | 0.0 | 1.6 | 0.00 | 0.00 | 0.00 | 50 | 1018.6 |
| 20260830212354 | 25 | 231 | 0.0 | 3.2 | 0.00 | 0.00 | 0.00 | 49 | 1018.5 |
| 20260830211338 | 25 | 231 | 0.0 | 3.2 | 0.00 | 0.00 | 0.00 | 50 | 1018.4 |
| 20260830210339 | 25 | 231 | 3.2 | 3.2 | 0.00 | 0.00 | 0.00 | 51 | 1018.6 |
| 20260830205358 | 25 | 231 | 3.2 | 4.8 | 0.00 | 0.00 | 0.00 | 50 | 1018.5 |
| 20260830204356 | 25 | 231 | 1.6 | 1.6 | 0.00 | 0.00 | 0.00 | 48 | 1018.4 |
| 20260830203340 | 26 | 231 | 0.0 | 6.4 | 0.00 | 0.00 | 0.00 | 50 | 1018.4 |
| 20260830202336 | 26 | 231 | 3.2 | 8.0 | 0.00 | 0.00 | 0.00 | 53 | 1018.3 |
| 20260830201336 | 26 | 209 | 3.2 | 4.8 | 0.00 | 0.00 | 0.00 | 51 | 1018.4 |
| 20260830200342 | 26 | 209 | 3.2 | 6.4 | 0.00 | 0.00 | 0.00 | 50 | 1018.3 |
| 20260830195342 | 27 | 208 | 4.8 | 6.4 | 0.00 | 0.00 | 0.00 | 48 | 1018.1 |
| 20260830194345 | 27 | 206 | 4.8 | 6.4 | 0.00 | 0.00 | 0.00 | 45 | 1018.2 |
| 20260830193348 | 27 | 205 | 3.2 | 6.4 | 0.00 | 0.00 | 0.00 | 41 | 1018.1 |
| 20260830192339 | 27 | 205 | 1.6 | 4.8 | 0.00 | 0.00 | 0.00 | 39 | 1017.9 |
| 20260830191339 | 27 | 205 | 0.0 | 4.8 | 0.00 | 0.00 | 0.00 | 38 | 1017.8 |
| 20260830190339 | 28 | 204 | 3.2 | 4.8 | 0.00 | 0.00 | 0.00 | 38 | 1017.6 |
| 20260830185340 | 28 | 204 | 3.2 | 6.4 | 0.00 | 0.00 | 0.00 | 37 | 1017.5 |
| 20260830184339 | 28 | 223 | 3.2 | 11.3 | 0.00 | 0.00 | 0.00 | 37 | 1017.4 |
| 20260830183341 | 28 | 221 | 3.2 | 8.0 | 0.00 | 0.00 | 0.00 | 36 | 1017.4 |
| 20260830182354 | 28 | 218 | 4.8 | 9.7 | 0.00 | 0.00 | 0.00 | 35 | 1017.3 |
| 20260830181353 | 29 | 242 | 3.2 | 16.1 | 0.00 | 0.00 | 0.00 | 35 | 1017.4 |
| 20260830180353 | 29 | 213 | 8.0 | 14.5 | 0.00 | 0.00 | 0.00 | 33 | 1017.3 |
| 20260830175343 | 30 | 212 | 3.2 | 12.9 | 0.00 | 0.00 | 0.00 | 33 | 1017.3 |
| 20260830174356 | 30 | 248 | 9.7 | 16.1 | 0.00 | 0.00 | 0.00 | 34 | 1017.2 |
| 20260830173354 | 30 | 209 | 4.8 | 14.5 | 0.00 | 0.00 | 0.00 | 34 | 1017.3 |
| 20260830172348 | 31 | 255 | 3.2 | 9.7 | 0.00 | 0.00 | 0.00 | 33 | 1017.2 |
| 20260830171347 | 30 | 159 | 1.6 | 16.1 | 0.00 | 0.00 | 0.00 | 32 | 1017.3 |
| 20260830170344 | 31 | 52 | 8.0 | 16.1 | 0.00 | 0.00 | 0.00 | 32 | 1017.2 |
| 20260830165400 | 31 | 257 | 3.2 | 12.9 | 0.00 | 0.00 | 0.00 | 33 | 1017.2 |
| 20260830164357 | 31 | 203 | 4.8 | 16.1 | 0.00 | 0.00 | 0.00 | 32 | 1017.1 |
| 20260830163356 | 30 | 218 | 11.3 | 27.4 | 0.00 | 0.00 | 0.00 | 33 | 1017.1 |
| 20260830162351 | 30 | 221 | 16.1 | 25.7 | 0.00 | 0.00 | 0.00 | 34 | 1017.1 |
| 20260830161346 | 31 | 195 | 11.3 | 20.9 | 0.00 | 0.00 | 0.00 | 35 | 1017.1 |
| 20260830160344 | 31 | 216 | 14.5 | 24.1 | 0.00 | 0.00 | 0.00 | 33 | 1017.1 |
| 20260830155340 | 31 | 228 | 8.0 | 27.4 | 0.00 | 0.00 | 0.00 | 36 | 1017.0 |
| 20260830154400 | 31 | 223 | 8.0 | 16.1 | 0.00 | 0.00 | 0.00 | 34 | 1017.2 |
| 20260830153340 | 31 | 199 | 6.4 | 19.3 | 0.00 | 0.00 | 0.00 | 35 | 1017.1 |
| 20260830152354 | 31 | 24 | 4.8 | 17.7 | 0.00 | 0.00 | 0.00 | 35 | 1017.3 |
| 20260830151352 | 31 | 160 | 4.8 | 19.3 | 0.00 | 0.00 | 0.00 | 35 | 1017.3 |
| 20260830150348 | 31 | 220 | 12.9 | 22.5 | 0.00 | 0.00 | 0.00 | 34 | 1017.3 |
| 20260830145341 | 31 | 210 | 12.9 | 22.5 | 0.00 | 0.00 | 0.00 | 35 | 1017.4 |
| 20260830144345 | 31 | 209 | 14.5 | 30.6 | 0.00 | 0.00 | 0.00 | 35 | 1017.4 |
| 20260830143346 | 31 | 168 | 4.8 | 14.5 | 0.00 | 0.00 | 0.00 | 32 | 1017.4 |
| 20260830142340 | 31 | 53 | 8.0 | 20.9 | 0.00 | 0.00 | 0.00 | 35 | 1017.5 |
| 20260830141341 | 31 | 200 | 8.0 | 22.5 | 0.00 | 0.00 | 0.00 | 38 | 1017.6 |
| 20260830140339 | 31 | 203 | 12.9 | 20.9 | 0.00 | 0.00 | 0.00 | 37 | 1017.7 |
| 20260830135355 | 31 | 214 | 6.4 | 22.5 | 0.00 | 0.00 | 0.00 | 32 | 1017.8 |
| 20260830134349 | 31 | 223 | 8.0 | 24.1 | 0.00 | 0.00 | 0.00 | 35 | 1017.9 |
| 20260830133346 | 31 | 243 | 16.1 | 27.4 | 0.00 | 0.00 | 0.00 | 32 | 1017.9 |
| 20260830132339 | 31 | 219 | 12.9 | 24.1 | 0.00 | 0.00 | 0.00 | 34 | 1018.0 |
| 20260830131354 | 31 | 206 | 6.4 | 24.1 | 0.00 | 0.00 | 0.00 | 34 | 1017.9 |
| 20260830130347 | 31 | 99 | 6.4 | 17.7 | 0.00 | 0.00 | 0.00 | 37 | 1018.3 |
| 20260830125357 | 31 | 130 | 9.7 | 22.5 | 0.00 | 0.00 | 0.00 | 37 | 1018.3 |
| 20260830124355 | 30 | 89 | 8.0 | 22.5 | 0.00 | 0.00 | 0.00 | 38 | 1018.4 |
| 20260830123348 | 30 | 116 | 14.5 | 24.1 | 0.00 | 0.00 | 0.00 | 39 | 1018.4 |
| 20260830122344 | 30 | 16 | 3.2 | 22.5 | 0.00 | 0.00 | 0.00 | 38 | 1018.5 |
| 20260830121343 | 30 | 149 | 12.9 | 24.1 | 0.00 | 0.00 | 0.00 | 38 | 1018.6 |
| 20260830120346 | 30 | 135 | 16.1 | 29.0 | 0.00 | 0.00 | 0.00 | 36 | 1018.6 |
| 20260830115340 | 30 | 132 | 9.7 | 22.5 | 0.00 | 0.00 | 0.00 | 36 | 1018.7 |
| 20260830114358 | 30 | 131 | 9.7 | 20.9 | 0.00 | 0.00 | 0.00 | 35 | 1018.7 |
| 20260830113349 | 30 | 110 | 12.9 | 24.1 | 0.00 | 0.00 | 0.00 | 34 | 1018.8 |
| 20260830112340 | 30 | 127 | 11.3 | 22.5 | 0.00 | 0.00 | 0.00 | 33 | 1018.8 |
| 20260830111358 | 31 | 175 | 12.9 | 17.7 | 0.00 | 0.00 | 0.00 | 33 | 1018.9 |
| 20260830110354 | 31 | 104 | 12.9 | 20.9 | 0.00 | 0.00 | 0.00 | 32 | 1019.1 |
| 20260830105402 | 31 | 244 | 6.4 | 20.9 | 0.00 | 0.00 | 0.00 | 32 | 1019.2 |
| 20260830104356 | 30 | 119 | 8.0 | 17.7 | 0.00 | 0.00 | 0.00 | 32 | 1019.2 |
| 20260830103347 | 30 | 130 | 9.7 | 16.1 | 0.00 | 0.00 | 0.00 | 32 | 1019.2 |
| 20260830102340 | 30 | 136 | 11.3 | 14.5 | 0.00 | 0.00 | 0.00 | 32 | 1019.1 |
| 20260830101344 | 30 | 278 | 6.4 | 12.9 | 0.00 | 0.00 | 0.00 | 37 | 1019.2 |
| 20260830100345 | 30 | 228 | 6.4 | 9.7 | 0.00 | 0.00 | 0.00 | 38 | 1019.3 |
| 20260830095343 | 29 | 235 | 4.8 | 9.7 | 0.00 | 0.00 | 0.00 | 41 | 1019.5 |
| 20260830094356 | 28 | 255 | 8.0 | 11.3 | 0.00 | 0.00 | 0.00 | 41 | 1019.5 |
| 20260830093354 | 28 | 265 | 4.8 | 9.7 | 0.00 | 0.00 | 0.00 | 45 | 1019.6 |
| 20260830092343 | 27 | 34 | 1.6 | 4.8 | 0.00 | 0.00 | 0.00 | 47 | 1019.5 |
| 20260830091346 | 27 | 34 | 0.0 | 4.8 | 0.00 | 0.00 | 0.00 | 49 | 1019.6 |
| 20260830090344 | 26 | 36 | 1.6 | 3.2 | 0.00 | 0.00 | 0.00 | 52 | 1019.6 |
| 20260830085346 | 26 | 36 | 1.6 | 6.4 | 0.00 | 0.00 | 0.00 | 54 | 1019.6 |
| 20260830084346 | 25 | 37 | 0.0 | 4.8 | 0.00 | 0.00 | 0.00 | 57 | 1019.6 |
| 20260830083345 | 25 | 37 | 3.2 | 4.8 | 0.00 | 0.00 | 0.00 | 59 | 1019.7 |
| 20260830082340 | 24 | 38 | 3.2 | 6.4 | 0.00 | 0.00 | 0.00 | 62 | 1019.6 |
| 20260830081339 | 24 | 39 | 3.2 | 4.8 | 0.00 | 0.00 | 0.00 | 62 | 1019.7 |
| 20260830080338 | 23 | 40 | 3.2 | 6.4 | 0.00 | 0.00 | 0.00 | 63 | 1019.6 |
| 20260830075400 | 23 | 41 | 1.6 | 4.8 | 0.00 | 0.00 | 0.00 | 66 | 1019.5 |
| 20260830074340 | 22 | 41 | 0.0 | 4.8 | 0.00 | 0.00 | 0.00 | 67 | 1019.5 |
| 20260830073358 | 22 | 41 | 1.6 | 6.4 | 0.00 | 0.00 | 0.00 | 68 | 1019.4 |
| 20260830072351 | 22 | 43 | 0.0 | 0.0 | 0.00 | 0.00 | 0.00 | 70 | 1019.5 |
| 20260830071351 | 22 | 44 | 0.0 | 3.2 | 0.00 | 0.00 | 0.00 | 72 | 1019.5 |
| 20260830070337 | 21 | 43 | 1.6 | 3.2 | 0.00 | 0.00 | 0.00 | 72 | 1019.4 |
| 20260830065354 | 21 | 43 | 1.6 | 3.2 | 0.00 | 0.00 | 0.00 | 73 | 1019.5 |
| 20260830064336 | 21 | 44 | 0.0 | 1.6 | 0.00 | 0.00 | 0.00 | 75 | 1019.5 |
| 20260830063340 | 20 | 43 | 0.0 | 4.8 | 0.00 | 0.00 | 0.00 | 76 | 1019.5 |
| 20260830062340 | 20 | 43 | 1.6 | 4.8 | 0.00 | 0.00 | 0.00 | 76 | 1019.3 |
| 20260830061340 | 20 | 44 | 0.0 | 4.8 | 0.00 | 0.00 | 0.00 | 78 | 1019.3 |
| 20260830060336 | 20 | 43 | 3.2 | 4.8 | 0.00 | 0.00 | 0.00 | 78 | 1019.4 |
| 20260830055356 | 19 | 43 | 0.0 | 3.2 | 0.00 | 0.00 | 0.00 | 77 | 1019.2 |
| 20260830054358 | 19 | 43 | 1.6 | 6.4 | 0.00 | 0.00 | 0.00 | 78 | 1019.3 |
| 20260830053338 | 19 | 44 | 1.6 | 4.8 | 0.00 | 0.00 | 0.00 | 77 | 1019.0 |
| 20260830052356 | 19 | 44 | 1.6 | 4.8 | 0.00 | 0.00 | 0.00 | 77 | 1019.1 |
| 20260830051341 | 20 | 44 | 0.0 | 3.2 | 0.00 | 0.00 | 0.00 | 78 | 1018.9 |
| 20260830050344 | 20 | 44 | 0.0 | 1.6 | 0.00 | 0.00 | 0.00 | 78 | 1019.0 |
| 20260830045346 | 20 | 44 | 0.0 | 3.2 | 0.00 | 0.00 | 0.00 | 78 | 1018.8 |
| 20260830044351 | 20 | 44 | 1.6 | 3.2 | 0.00 | 0.00 | 0.00 | 78 | 1018.9 |
| 20260830043354 | 20 | 44 | 0.0 | 0.0 | 0.00 | 0.00 | 0.00 | 78 | 1019.0 |
| 20260830042351 | 20 | 44 | 0.0 | 0.0 | 0.00 | 0.00 | 0.00 | 77 | 1019.0 |
| 20260830040338 | 20 | 44 | 0.0 | 0.0 | 0.00 | 0.00 | 0.00 | 76 | 1019.0 |
| 20260830035359 | 20 | 44 | 0.0 | 0.0 | 0.00 | 0.00 | 0.00 | 77 | 1018.9 |
| 20260830034338 | 20 | 44 | 0.0 | 0.0 | 0.00 | 0.00 | 0.00 | 76 | 1018.9 |
| 20260830033337 | 20 | 44 | 0.0 | 1.6 | 0.00 | 0.00 | 0.00 | 75 | 1018.9 |
| 20260830032354 | 20 | 44 | 0.0 | 1.6 | 0.00 | 0.00 | 0.00 | 75 | 1018.9 |
| 20260830031337 | 20 | 44 | 0.0 | 3.2 | 0.00 | 0.00 | 0.00 | 75 | 1019.0 |
| 20260830030357 | 21 | 44 | 0.0 | 1.6 | 0.00 | 0.00 | 0.00 | 75 | 1018.9 |
| 20260830025357 | 21 | 44 | 0.0 | 1.6 | 0.00 | 0.00 | 0.00 | 75 | 1019.0 |
| 20260830024336 | 21 | 44 | 0.0 | 1.6 | 0.00 | 0.00 | 0.00 | 75 | 1019.1 |
| 20260830023338 | 21 | 44 | 0.0 | 1.6 | 0.00 | 0.00 | 0.00 | 75 | 1019.0 |
| 20260830022357 | 21 | 44 | 0.0 | 3.2 | 0.00 | 0.00 | 0.00 | 75 | 1019.0 |
| 20260830021357 | 21 | 44 | 1.6 | 3.2 | 0.00 | 0.00 | 0.00 | 75 | 1019.0 |
| 20260830020336 | 21 | 44 | 1.6 | 3.2 | 0.00 | 0.00 | 0.00 | 75 | 1019.2 |
| 20260830015356 | 21 | 44 | 0.0 | 3.2 | 0.00 | 0.00 | 0.00 | 75 | 1019.2 |
| 20260830014337 | 21 | 44 | 0.0 | 3.2 | 0.00 | 0.00 | 0.00 | 75 | 1019.3 |
| 20260830013336 | 21 | 44 | 1.6 | 6.4 | 0.00 | 0.00 | 0.00 | 75 | 1019.3 |
| 20260830012357 | 21 | 44 | 4.8 | 9.7 | 0.00 | 0.00 | 0.00 | 74 | 1019.3 |
| 20260830011341 | 21 | 45 | 6.4 | 9.7 | 0.00 | 0.00 | 0.00 | 73 | 1019.3 |
| 20260830010343 | 21 | 46 | 3.2 | 6.4 | 0.00 | 0.00 | 0.00 | 73 | 1019.2 |
| 20260830005341 | 22 | 46 | 3.2 | 6.4 | 0.00 | 0.00 | 0.00 | 72 | 1019.4 |
| 20260830004347 | 22 | 46 | 3.2 | 4.8 | 0.00 | 0.00 | 0.00 | 71 | 1019.4 |
| 20260830003348 | 22 | 46 | 0.0 | 4.8 | 0.00 | 0.00 | 0.00 | 71 | 1019.5 |